Location: Prairie State College
(41.5244°N, 87.6382°W)
Time: 22:11:05
(UTC-05:00)

Amateur Radio Satellites - All Passes

Search period start: 19 April 2014 21:41
Search period end: 20 April 2014 21:41
Location: Prairie State College, 41.5244°N, 87.6382°W

Satellite Date Start Highest point End Downlink Frequencies (MHz)
Time Altitude Azimuth
Saudisat 1A 19 Apr 21:42:28 21:42:51 10° 253° (WSW) 21:43:13 436.775 MHz
HO-68 19 Apr 21:54:11 22:00:57 46° 260° (W) 22:07:47 435.675 MHz FM
FUNcube-1 19 Apr 22:36:55 22:41:08 89° 78° (ENE) 22:45:19 145.950 - 145.970 MHz USB
SO-50 19 Apr 22:42:17 22:44:33 13° 37° (NE) 22:46:50 436.795 FM
Oscar 11 19 Apr 22:46:53 22:50:16 23° 266° (W) 22:53:42 145.825 FM, Beacon 2401.500 USB
ISS 19 Apr 22:53:04 22:55:41 21° 227° (SW) 22:58:17 145.800 FM
Sapphire 19 Apr 23:24:29 23:27:22 15° 103° (ESE) 23:30:14 437.095 MHz 1200 baud AX-25 AFSK
PCSat 20 Apr 00:06:50 00:11:47 38° 111° (ESE) 00:16:46 145.825 MHz
SO-50 20 Apr 00:21:14 00:25:54 76° 56° (NE) 00:30:37 436.795 FM
Oscar 10/S400 20 Apr 00:51:26 00:59:21 12° 128° (SE) 01:09:20 145.825 - 145.975 CW/USB, Beacon 145.810 USB
UOSAT-12 20 Apr 01:02:36 01:05:44 17° 40° (NE) 01:08:51 437.025 FM, 437.400 FM
Sapphire 20 Apr 01:04:41 01:10:05 76° 300° (WNW) 01:15:32 437.095 MHz 1200 baud AX-25 AFSK
Oscar 19 20 Apr 01:25:42 01:29:11 18° 92° (E) 01:32:40 437.125 CW, 437.150 USB
KITSAT 1 20 Apr 01:25:43 01:31:03 19° 102° (ESE) 01:36:22 435.175 FM
Oscar 16 20 Apr 01:33:36 01:37:41 23° 94° (E) 01:41:45 437.025 USB, Beacon 2401.1428
OPAL 20 Apr 01:41:42 01:45:54 27° 63° (ENE) 01:50:09 ?
PCSat 20 Apr 01:50:24 01:55:14 33° 309° (NW) 02:00:07 145.825 MHz
SO-50 20 Apr 02:03:55 02:05:52 13° 252° (WSW) 02:07:50 436.795 FM
Uribyol 2 20 Apr 02:09:34 02:13:50 26° 95° (E) 02:18:06 436.500 FM
UOSAT-12 20 Apr 02:41:43 02:46:28 79° 239° (WSW) 02:51:08 437.025 FM, 437.400 FM
Gurwin Techsat 1B 20 Apr 02:45:59 02:49:26 17° 91° (E) 02:52:51 435.225 FM
AO-27 20 Apr 02:49:28 02:54:36 59° 101° (E) 02:59:41 436.795 MHz FM
Sapphire 20 Apr 02:51:30 02:54:28 15° 321° (NW) 02:57:26 437.095 MHz 1200 baud AX-25 AFSK
ITAMSAT 1 20 Apr 03:00:01 03:05:12 73° 103° (ESE) 03:10:21 435.822 SSB
AO-Echo 20 Apr 03:01:52 03:06:36 61° 101° (E) 03:11:14 ?
Oscar 19 20 Apr 03:03:47 03:08:52 56° 288° (WNW) 03:13:56 437.125 CW, 437.150 USB
Oscar 16 20 Apr 03:12:18 03:17:13 44° 290° (WNW) 03:22:06 437.025 USB, Beacon 2401.1428
KITSAT 1 20 Apr 03:17:15 03:25:23 88° 300° (WNW) 03:33:34 435.175 FM
OPAL 20 Apr 03:19:58 03:24:36 37° 260° (W) 03:29:20 ?
TMSAT-1 20 Apr 03:32:50 03:37:37 34° 96° (E) 03:42:22 436.925 FM
Uribyol 2 20 Apr 03:48:38 03:53:25 39° 291° (WNW) 03:58:11 436.500 FM
AO-7 20 Apr 03:54:18 03:59:30 18° 90° (E) 04:04:41 29.400 - 29.500 MHz
JAS-1B 20 Apr 03:54:40 03:59:19 25° 95° (E) 04:04:07 435.800 - 435.900 CW/SSB
Gurwin Techsat 1B 20 Apr 04:24:34 04:29:47 60° 288° (WNW) 04:34:59 435.225 FM
AO-27 20 Apr 04:30:10 04:33:39 19° 298° (WNW) 04:37:07 436.795 MHz FM
RS-15 20 Apr 04:40:16 04:43:30 12° 95° (E) 04:46:42 29.354 - 29.394 USB, Beacon 29.352 USB
ITAMSAT 1 20 Apr 04:41:10 04:44:05 15° 300° (WNW) 04:46:59 435.822 SSB
AO-Echo 20 Apr 04:42:08 04:44:51 15° 298° (WNW) 04:47:33 ?
Uosat F 20 Apr 04:59:12 05:04:14 79° 103° (ESE) 05:09:13 435.120 FM
AO-40 20 Apr 05:06:34 10:28:04 36° 180° (S) 16:08:03 Beacon 2401.320
TMSAT-1 20 Apr 05:12:51 05:17:27 31° 293° (WNW) 05:22:03 436.925 FM
KITSAT 1 20 Apr 05:15:28 05:21:57 25° 323° (NW) 05:28:27 435.175 FM
JAS-1B 20 Apr 05:44:56 05:50:12 41° 292° (WNW) 05:55:38 435.800 - 435.900 CW/SSB
AO-7 20 Apr 05:44:56 05:53:19 89° 109° (ESE) 06:01:40 29.400 - 29.500 MHz
STRAND 1 20 Apr 05:59:02 06:03:39 36° 68° (ENE) 06:08:18 ?
JAS-2 20 Apr 06:35:45 06:38:18 13° 91° (E) 06:40:57 435.800 - 435.900 CW/SSB, 435.910 FM
Uosat F 20 Apr 06:39:59 06:42:21 14° 301° (WNW) 06:44:42 435.120 FM
RS-15 20 Apr 06:42:24 06:53:30 63° 115° (ESE) 07:04:15 29.354 - 29.394 USB, Beacon 29.352 USB
MaSat-1 20 Apr 07:14:33 07:17:32 63° 245° (WSW) 07:21:04 437.345 MHz
KITSAT 1 20 Apr 07:18:26 07:20:57 12° 353° (N) 07:23:27 435.175 FM
Hamsat 20 Apr 07:19:15 07:23:37 76° 284° (WNW) 07:27:58 145.90 MHz
STRAND 1 20 Apr 07:38:34 07:42:53 27° 265° (W) 07:47:13 ?
AO-7 20 Apr 07:39:07 07:45:04 23° 308° (NW) 07:51:02 29.400 - 29.500 MHz
Sapphire 20 Apr 08:10:26 08:13:49 16° 41° (NE) 08:17:11 437.095 MHz 1200 baud AX-25 AFSK
SO-67 20 Apr 08:14:35 08:18:06 85° 283° (WNW) 08:21:36 435.3500 MHz FM
JAS-2 20 Apr 08:18:28 08:23:52 79° 285° (WNW) 08:29:50 435.800 - 435.900 CW/SSB, 435.910 FM
PCSat 20 Apr 08:54:24 08:59:19 34° 51° (NE) 09:04:12 145.825 MHz
RS-15 20 Apr 08:55:53 09:06:23 43° 319° (NW) 09:16:41 29.354 - 29.394 USB, Beacon 29.352 USB
KITSAT 1 20 Apr 09:15:55 09:20:38 16° 24° (NNE) 09:25:21 435.175 FM
HO-68 20 Apr 09:21:30 09:27:59 35° 97° (E) 09:34:24 435.675 MHz FM
Sapphire 20 Apr 09:52:35 09:58:03 88° 61° (ENE) 10:03:27 437.095 MHz 1200 baud AX-25 AFSK
JAS-2 20 Apr 10:07:05 10:08:15 11° 302° (WNW) 10:09:25 435.800 - 435.900 CW/SSB, 435.910 FM
Saudisat 1A 20 Apr 10:07:16 10:10:34 21° 112° (ESE) 10:13:53 436.775 MHz
FUNcube-1 20 Apr 10:26:58 10:29:45 17° 93° (E) 10:32:34 145.950 - 145.970 MHz USB
PANSAT 20 Apr 10:31:51 10:33:13 12° 183° (S) 10:34:36 not established
Oscar 11 20 Apr 10:33:16 10:37:37 63° 101° (E) 10:41:56 145.825 FM, Beacon 2401.500 USB
PCSat 20 Apr 10:37:48 10:42:44 37° 249° (WSW) 10:47:39 145.825 MHz
HO-68 20 Apr 11:09:00 11:15:46 46° 295° (WNW) 11:22:31 435.675 MHz FM
KITSAT 1 20 Apr 11:10:33 11:18:22 48° 50° (NE) 11:26:05 435.175 FM
RS-15 20 Apr 11:14:54 11:22:43 21° 351° (N) 11:30:31 29.354 - 29.394 USB, Beacon 29.352 USB
Sapphire 20 Apr 11:38:38 11:40:39 12° 258° (WSW) 11:42:40 437.095 MHz 1200 baud AX-25 AFSK
Saudisat 1A 20 Apr 11:45:36 11:49:53 44° 308° (NW) 11:54:11 436.775 MHz
FUNcube-1 20 Apr 12:02:20 12:06:21 42° 288° (WNW) 12:10:26 145.950 - 145.970 MHz USB
Oscar 11 20 Apr 12:11:18 12:13:16 13° 297° (WNW) 12:15:15 145.825 FM, Beacon 2401.500 USB
AO-27 20 Apr 12:32:14 12:34:15 12° 58° (ENE) 12:36:16 436.795 MHz FM
AO-Echo 20 Apr 12:40:20 12:41:41 11° 59° (ENE) 12:43:01 ?
ITAMSAT 1 20 Apr 12:41:46 12:44:34 15° 60° (ENE) 12:47:23 435.822 SSB
Oscar 19 20 Apr 12:42:35 12:46:51 27° 66° (ENE) 12:51:08 437.125 CW, 437.150 USB
Oscar 16 20 Apr 12:50:39 12:55:14 34° 68° (ENE) 12:59:51 437.025 USB, Beacon 2401.1428
KITSAT 1 20 Apr 13:06:13 13:13:40 42° 250° (WSW) 13:21:04 435.175 FM
Uribyol 2 20 Apr 13:27:32 13:32:18 40° 69° (ENE) 13:37:05 436.500 FM
RS-15 20 Apr 13:31:05 13:40:11 28° 27° (NNE) 13:49:18 29.354 - 29.394 USB, Beacon 29.352 USB
Oscar 10/S400 20 Apr 13:42:23 15:02:07 23° 266° (W) 17:38:01 145.825 - 145.975 CW/USB, Beacon 145.810 USB
ISS 20 Apr 14:00:06 14:01:51 14° 130° (SE) 14:03:36 145.800 FM
Gurwin Techsat 1B 20 Apr 14:06:58 14:11:26 28° 66° (ENE) 14:15:55 435.225 FM
AO-27 20 Apr 14:07:47 14:12:59 89° 76° (ENE) 14:18:13 436.795 MHz FM
AO-Echo 20 Apr 14:14:25 14:19:40 82° 75° (ENE) 14:24:48 ?
ITAMSAT 1 20 Apr 14:18:16 14:23:26 75° 257° (WSW) 14:28:38 435.822 SSB
Oscar 19 20 Apr 14:21:16 14:26:00 38° 262° (W) 14:30:49 437.125 CW, 437.150 USB
Oscar 16 20 Apr 14:30:09 14:34:35 29° 264° (W) 14:39:04 437.025 USB, Beacon 2401.1428
Uosat F 20 Apr 14:36:53 14:39:28 14° 60° (ENE) 14:42:04 435.120 FM
SO-50 20 Apr 14:37:30 14:41:00 23° 112° (ESE) 14:44:31 436.795 FM
JAS-1B 20 Apr 14:39:34 14:46:02 30° 65° (ENE) 14:51:39 435.800 - 435.900 CW/SSB
AO-7 20 Apr 14:53:24 15:00:03 28° 55° (NE) 15:06:43 29.400 - 29.500 MHz
TMSAT-1 20 Apr 14:53:40 14:58:47 53° 71° (ENE) 15:03:56 436.925 FM
Uribyol 2 20 Apr 15:07:40 15:11:53 25° 265° (W) 15:16:07 436.500 FM
OPAL 20 Apr 15:29:08 15:34:16 56° 103° (ESE) 15:39:23 ?
ISS 20 Apr 15:34:52 15:38:12 71° 326° (NW) 15:41:33 145.800 FM
RS-15 20 Apr 15:43:38 15:54:38 77° 55° (NE) 16:05:53 29.354 - 29.394 USB, Beacon 29.352 USB
Gurwin Techsat 1B 20 Apr 15:46:21 15:51:14 37° 263° (W) 15:56:10 435.225 FM
AO-27 20 Apr 15:52:22 15:53:11 10° 272° (W) 15:54:00 436.795 MHz FM
AO-Echo 20 Apr 15:57:04 15:58:58 12° 271° (W) 16:00:52 ?
Uosat F 20 Apr 16:12:37 16:17:38 75° 257° (WSW) 16:22:41 435.120 FM
SO-50 20 Apr 16:17:06 16:21:19 40° 310° (NW) 16:25:36 436.795 FM
JAS-1B 20 Apr 16:28:28 16:36:25 55° 259° (WSW) 16:43:06 435.800 - 435.900 CW/SSB
TMSAT-1 20 Apr 16:35:16 16:39:01 19° 268° (W) 16:42:47 436.925 FM
AO-7 20 Apr 16:43:55 16:52:09 71° 255° (WSW) 17:00:27 29.400 - 29.500 MHz
UOSAT-12 20 Apr 16:53:32 16:57:29 30° 114° (ESE) 17:01:31 437.025 FM, 437.400 FM
OPAL 20 Apr 17:08:59 17:12:43 20° 300° (WNW) 17:16:28 ?
ISS 20 Apr 17:12:55 17:15:24 19° 345° (NNW) 17:17:53 145.800 FM
RS-15 20 Apr 17:57:07 18:05:53 29° 256° (WSW) 18:14:54 29.354 - 29.394 USB, Beacon 29.352 USB
STRAND 1 20 Apr 18:11:51 18:13:19 11° 89° (E) 18:14:48 ?
Hamsat 20 Apr 18:12:43 18:16:54 77° 76° (ENE) 18:21:09 145.90 MHz
JAS-2 20 Apr 18:31:23 18:36:47 43° 70° (ENE) 18:41:47 435.800 - 435.900 CW/SSB, 435.910 FM
Saudisat 1A 20 Apr 18:33:20 18:36:41 21° 43° (NE) 18:40:00 436.775 MHz
UOSAT-12 20 Apr 18:33:24 18:37:34 33° 312° (NW) 18:41:49 437.025 FM, 437.400 FM
AO-7 20 Apr 18:43:18 18:46:20 12° 273° (W) 18:49:22 29.400 - 29.500 MHz
SO-67 20 Apr 18:48:38 18:51:44 31° 72° (ENE) 18:54:52 435.3500 MHz FM
ISS 20 Apr 18:51:03 18:53:06 15° 6° (N) 18:55:10 145.800 FM
STRAND 1 20 Apr 19:48:01 19:53:08 83° 285° (WNW) 19:58:13 ?
HO-68 20 Apr 19:50:56 19:56:45 28° 59° (ENE) 20:02:35 435.675 MHz FM
Saudisat 1A 20 Apr 20:12:17 20:16:35 52° 242° (WSW) 20:20:49 436.775 MHz
JAS-2 20 Apr 20:17:25 20:22:02 24° 265° (W) 20:26:23 435.800 - 435.900 CW/SSB, 435.910 FM
SO-67 20 Apr 20:22:58 20:24:59 15° 268° (W) 20:27:01 435.3500 MHz FM
ISS 20 Apr 20:27:33 20:30:37 32° 25° (NNE) 20:33:41 145.800 FM
MaSat-1 20 Apr 21:18:14 21:21:06 56° 114° (ESE) 21:23:40 437.345 MHz
FUNcube-1 20 Apr 21:24:51 21:27:07 14° 64° (ENE) 21:29:22 145.950 - 145.970 MHz USB
Oscar 11 20 Apr 21:28:27 21:32:36 50° 73° (ENE) 21:36:47 145.825 FM, Beacon 2401.500 USB
STRAND 1 20 Apr 21:30:11 21:31:29 11° 303° (WNW) 21:32:48 ?
